Back to catalog

ONEWEB-0429

AliveCommunicationsPO
NORAD 50500·PAYLOAD·🇬🇧 United Kingdom

Launched Dec 27, 2021 from Baikonur Cosmodrome

Loading…

Next Passes (next 24 hours)

TLE

FreshSource: CelesTrak SupGP

Epoch: Sep 14, 2026, 12:25 UTC

1 50500C 21132AH  26257.51786296  .00002409  00000+0  61176-2 0  2579
2 50500  87.9158 317.7092 0001959  95.5598  17.2499 13.18682196    12

Track ONEWEB-0429 in real time with AllMySat

Download on the App Store